This demonstration page uses our WeatherBlox Daily Observations layout. Learn more.

Left ArrowRight Arrow

Hourly Observations for June 24, 2021

Temp ( °F °C ) Dew Point ( °F °C ) Humidity (%) Winds ( mph kmh ) Pressure ( in mb ) Visibility ( mi km ) Precip ( " mm )
12:56 am 00:56 Clear 80 26.7 70 21.1 71 71 S 10 17 29.65 1004 10 16 0.00 0.00
1:56 am 01:56 Clear 76 24.4 69 20.6 79 79 NNE 13 20 29.68 1005 10 16 0.00 0.00
2:43 am 02:43 Partly Cloudy with Thunderstorms 79 26 70 21 74 74 E 10 17 29.67 1005 8 13 0.00 0.00
2:56 am 02:56 Mostly Cloudy with Thunderstorms 77 25 69 20.6 77 77 E 14 22 29.72 1006 9 14 0.00 0.00
3:31 am 03:31 Cloudy 70 21 63 17 78 78 ENE 18 30 29.73 1007 10 16 0.00 0.00
3:56 am 03:56 Cloudy 68 20 62 16.7 81 81 ENE 18 30 29.76 1008 10 16 0.00 0.00
4:56 am 04:56 Clear 67 19.4 63 17.2 87 87 E 16 26 29.73 1007 10 16 0.00 0.00
5:56 am 05:56 Clear 68 20 63 17.2 84 84 ESE 16 26 29.72 1006 10 16 0.00 0.00
6:56 am 06:56 Sunny 70 21.1 64 17.8 82 82 ESE 12 19 29.72 1007 10 16 0.00 0.00
7:56 am 07:56 Sunny 71 21.7 64 17.8 79 79 ESE 12 19 29.75 1007 10 16 0.00 0.00
8:56 am 08:56 Sunny 72 22.2 65 18.3 79 79 SE 8 13 29.79 1009 10 16 0.00 0.00
9:56 am 09:56 Sunny 76 24.4 68 20 77 77 SE 13 20 29.81 1010 10 16 0.00 0.00
10:56 am 10:56 Cloudy 75 23.9 68 20 79 79 E 8 13 29.84 1011 10 16 0.00 0.00
11:56 am 11:56 Cloudy 75 23.9 68 20 79 79 NE 15 24 29.85 1011 10 16 0.00 0.00
12:56 pm 12:56 Cloudy 75 23.9 68 20 79 79 NNE 13 20 29.83 1010 10 16 0.00 0.00
1:56 pm 13:56 Cloudy 76 24.4 68 20 77 77 NE 12 19 29.83 1010 10 16 0.00 0.00
2:12 pm 14:12 Partly Cloudy 75 24 68 20 78 78 NE 10 17 29.79 1009 10 16 0.00 0.00
2:56 pm 14:56 Mostly Cloudy 76 24.4 68 20 77 77 NNW 3 6 29.87 1012 8 13 0.00 0.00
3:21 pm 15:21 Cloudy with Thunderstorms 75 24 70 21 83 83 WNW 6 9 29.82 1010 9 14 0.00 0.00
3:42 pm 15:42 Cloudy with Thunderstorms 73 23 72 22 94 94 E 3 6 29.79 1009 8 13 0.07 1.78
3:56 pm 15:56 Cloudy with Thunderstorms 74 23.3 72 22.2 94 94 E 6 9 29.84 1011 6 10 0.10 2.54
4:14 pm 16:14 Partly Cloudy with Nearby Thunderstorms 75 24 72 22 89 89 ENE 7 11 29.77 1008 10 16 0.00 0.00
4:24 pm 16:24 Partly Cloudy 75 24 72 22 89 89 E 9 15 29.78 1008 9 14 0.00 0.00
4:56 pm 16:56 Mostly Sunny 77 25 72 22.2 85 85 NE 10 17 29.81 1010 10 16 0.00 0.00
5:56 pm 17:56 Cloudy 80 26.7 71 21.7 74 74 E 15 24 29.78 1009 10 16 0.00 0.00
6:56 pm 18:56 Sunny 80 26.7 67 19.4 64 64 ENE 13 20 29.78 1009 10 16 0.00 0.00
7:56 pm 19:56 Sunny 76 24.4 69 20.6 79 79 E 8 13 29.79 1009 10 16 0.00 0.00
8:56 pm 20:56 Sunny 73 22.8 68 20 84 84 N 5 7 29.77 1008 10 16 0.00 0.00
9:56 pm 21:56 Clear 69 20.6 67 19.4 93 93 NNE 6 9 29.80 1009 10 16 0.00 0.00
10:56 pm 22:56 Clear 67 19.4 66 18.9 97 97 NNE 5 7 29.85 1011 8 13 0.00 0.00
11:56 pm 23:56 Clear 68 20 66 18.9 93 93 N 8 13 29.86 1011 8 13 0.00 0.00

Powered by AerisWeather